GW2656 Weather Reports


time (UTC)temp
C
wind
direction
speed
KPH
gust
KPH
rain 1hr
cm
rain 24hr
cm
rain mn
cm
humidity
%
barometer
mb
20260510045030 5 324 0.0 1.6 0.00 0.00 0.00 50 1007.1
20260510044527 5 273 3.2 3.2 0.00 0.00 0.00 50 1007.2
20260510044024 5 313 0.0 0.0 0.00 0.00 0.00 50 1007.2
20260510043520 5 327 0.0 0.0 0.00 0.00 0.00 50 1007.2
20260510043014 5 322 0.0 0.0 0.00 0.00 0.00 50 1007.3
20260510042504 6 327 0.0 0.0 0.00 0.00 0.00 49 1007.3
20260510041958 6 327 0.0 0.0 0.00 0.00 0.00 48 1007.2
20260510041455 6 320 0.0 0.0 0.00 0.00 0.00 47 1007.3
20260510040953 6 324 1.6 1.6 0.00 0.00 0.00 46 1007.2
20260510040450 6 294 1.6 1.6 0.00 0.00 0.00 45 1007.1
20260510035945 6 306 1.6 1.6 0.00 0.00 0.00 45 1007.2
20260510035442 6 303 0.0 0.0 0.00 0.00 0.00 45 1007.2
20260510034942 6 322 1.6 1.6 0.00 0.00 0.00 45 1007.2
20260510034441 6 328 0.0 0.0 0.00 0.00 0.00 44 1007.2
20260510033937 6 331 0.0 0.0 0.00 0.00 0.00 43 1007.2
20260510033433 6 322 0.0 1.6 0.00 0.00 0.00 43 1007.3
20260510032930 6 311 0.0 1.6 0.00 0.00 0.00 42 1007.1
20260510032427 7 338 0.0 1.6 0.00 0.00 0.00 40 1007.2
20260510031922 7 290 1.6 1.6 0.00 0.00 0.00 39 1007.1
20260510031418 7 280 1.6 1.6 0.00 0.00 0.00 38 1007.2
20260510030914 7 317 0.0 0.0 0.00 0.00 0.00 37 1007.1
20260510030410 7 329 1.6 1.6 0.00 0.00 0.00 36 1007.2
20260510025908 7 324 0.0 1.6 0.00 0.00 0.00 35 1007.2
20260510025405 7 341 3.2 3.2 0.00 0.00 0.00 35 1007.3
20260510024902 7 326 1.6 1.6 0.00 0.00 0.00 35 1007.2
20260510024358 8 321 1.6 3.2 0.00 0.00 0.00 34 1007.4
20260510023854 8 322 3.2 3.2 0.00 0.00 0.00 33 1007.3
20260510023351 8 355 1.6 3.2 0.00 0.00 0.00 33 1007.3
20260510022848 8 359 1.6 1.6 0.00 0.00 0.00 33 1007.1
20260510022347 8 348 1.6 1.6 0.00 0.00 0.00 34 1007.3
20260510021846 8 18 1.6 1.6 0.00 0.00 0.00 34 1007.4
20260510021345 8 344 1.6 1.6 0.00 0.00 0.00 35 1007.4
20260510020840 8 335 1.6 1.6 0.00 0.00 0.00 34 1007.5
20260510020335 8 330 0.0 1.6 0.00 0.00 0.00 36 1007.4
20260510015831 8 323 0.0 1.6 0.00 0.00 0.00 36 1007.4
20260510015327 8 331 0.0 0.0 0.00 0.00 0.00 37 1007.5
20260510014822 8 344 0.0 1.6 0.00 0.00 0.00 35 1007.5
20260510014320 8 328 0.0 0.0 0.00 0.00 0.00 35 1007.5
20260510013816 8 340 0.0 1.6 0.00 0.00 0.00 37 1007.7
20260510013312 9 340 1.6 1.6 0.00 0.00 0.00 35 1007.7
20260510012807 9 336 0.0 1.6 0.00 0.00 0.00 35 1007.7
20260510012307 10 325 0.0 1.6 0.00 0.00 0.00 34 1007.7
20260510011801 10 328 0.0 0.0 0.00 0.00 0.00 33 1007.5
20260510011257 10 326 0.0 1.6 0.00 0.00 0.00 32 1007.5
20260510010754 10 3 0.0 1.6 0.00 0.00 0.00 32 1007.5
20260510010250 10 336 1.6 1.6 0.00 0.00 0.00 31 1007.4
20260510005747 10 24 1.6 3.2 0.00 0.00 0.00 32 1007.4
20260510005244 10 326 1.6 3.2 0.00 0.00 0.00 32 1007.3
20260510004742 10 37 1.6 3.2 0.00 0.00 0.00 31 1007.2
20260510004239 11 46 1.6 3.2 0.00 0.00 0.00 31 1007.4
20260510003736 11 249 1.6 1.6 0.00 0.00 0.00 30 1007.3
20260510003232 11 261 4.8 11.3 0.00 0.00 0.00 31 1007.4
20260510002731 11 298 3.2 3.2 0.00 0.00 0.00 31 1007.3
20260510002229 11 203 3.2 3.2 0.00 0.00 0.00 32 1007.2
20260510001725 10 314 1.6 1.6 0.00 0.00 0.00 33 1007.8
20260510001224 10 43 3.2 3.2 0.00 0.00 0.00 33 1007.5
20260510000720 10 318 0.0 1.6 0.00 0.00 0.00 37 1007.5
20260510000219 10 350 1.6 1.6 0.00 0.00 0.00 37 1007.3
20260509235714 10 323 1.6 1.6 0.00 0.00 0.00 39 1007.3
20260509235210 10 282 1.6 1.6 0.00 0.00 0.00 40 1007.4
20260509234706 10 271 3.2 3.2 0.00 0.00 0.00 41 1007.4
20260509234204 10 315 1.6 1.6 0.00 0.00 0.00 43 1007.3
20260509233702 10 313 0.0 1.6 0.00 0.00 0.00 42 1007.3
20260509233159 10 320 1.6 1.6 0.00 0.00 0.00 41 1007.3
20260509232655 10 351 1.6 3.2 0.00 0.00 0.00 42 1007.2
20260509232152 10 352 3.2 4.8 0.00 0.00 0.00 42 1007.2
20260509231649 10 145 3.2 4.8 0.00 0.00 0.00 44 1007.0
20260509231146 11 310 1.6 3.2 0.00 0.00 0.00 42 1007.3
20260509230643 11 1 3.2 4.8 0.00 0.00 0.00 40 1007.2
20260509230140 11 204 4.8 8.0 0.00 0.00 0.00 40 1007.4
20260509225636 11 150 4.8 4.8 0.00 0.00 0.00 41 1007.3
20260509225131 11 299 3.2 3.2 0.00 0.00 0.00 42 1007.3
20260509224627 11 165 3.2 4.8 0.00 0.00 0.00 42 1007.3
20260509224124 11 254 1.6 3.2 0.00 0.00 0.00 43 1007.4
20260509223621 11 346 3.2 3.2 0.00 0.00 0.00 44 1007.4
20260509223118 11 319 1.6 1.6 0.00 0.00 0.00 43 1007.4
20260509222614 11 274 6.4 9.7 0.00 0.00 0.00 44 1007.4
20260509222110 11 212 3.2 3.2 0.00 0.00 0.00 44 1007.4
20260509221606 11 224 3.2 3.2 0.00 0.00 0.00 44 1007.4
20260509221102 11 219 4.8 4.8 0.00 0.00 0.00 44 1007.5
20260509220558 11 276 3.2 3.2 0.00 0.00 0.00 44 1007.5
20260509220055 12 318 4.8 4.8 0.00 0.00 0.00 43 1007.4
20260509215550 12 307 1.6 1.6 0.00 0.00 0.00 43 1007.1
20260509215048 11 174 3.2 4.8 0.00 0.00 0.00 44 1007.3
20260509214545 12 336 0.0 0.0 0.00 0.00 0.00 43 1007.4
20260509214042 12 273 1.6 1.6 0.00 0.00 0.00 43 1007.4
20260509213538 12 324 1.6 1.6 0.00 0.00 0.00 43 1007.4
20260509213035 12 261 1.6 3.2 0.00 0.00 0.00 43 1007.7
20260509212532 12 317 1.6 1.6 0.00 0.00 0.00 43 1007.7
20260509212029 12 310 0.0 1.6 0.00 0.00 0.00 43 1007.8
20260509211524 12 320 0.0 0.0 0.00 0.00 0.00 43 1007.5
20260509211021 12 321 0.0 0.0 0.00 0.00 0.00 43 1007.7
20260509210518 12 315 1.6 1.6 0.00 0.00 0.00 41 1007.7
20260509210015 12 324 0.0 0.0 0.00 0.00 0.00 41 1007.7
20260509205509 12 331 0.0 0.0 0.00 0.00 0.00 40 1007.7
20260509205005 13 322 0.0 1.6 0.00 0.00 0.00 39 1007.8
20260509204501 12 323 0.0 0.0 0.00 0.00 0.00 41 1007.9
20260509203957 12 322 0.0 1.6 0.00 0.00 0.00 40 1007.8
20260509203453 12 324 0.0 0.0 0.00 0.00 0.00 41 1007.8
20260509202951 12 328 0.0 0.0 0.00 0.00 0.00 40 1007.8
20260509202447 13 325 1.6 1.6 0.00 0.00 0.00 39 1007.9
20260509201942 13 329 0.0 0.0 0.00 0.00 0.00 38 1007.8
20260509201437 13 328 0.0 0.0 0.00 0.00 0.00 38 1008.1
20260509200935 13 327 0.0 0.0 0.00 0.00 0.00 36 1007.9
20260509200434 13 325 0.0 0.0 0.00 0.00 0.00 35 1008.0
20260509195931 14 276 1.6 1.6 0.00 0.00 0.00 34 1007.7
20260509195427 14 313 1.6 1.6 0.00 0.00 0.00 34 1007.8
20260509194927 14 309 1.6 1.6 0.00 0.00 0.00 33 1007.7
20260509194422 15 313 1.6 1.6 0.00 0.00 0.00 33 1007.5
20260509193920 15 291 3.2 3.2 0.00 0.00 0.00 32 1007.5
20260509193419 15 291 3.2 3.2 0.00 0.00 0.00 32 1007.5
20260509192916 15 323 1.6 1.6 0.00 0.00 0.00 32 1007.5
20260509192412 14 310 1.6 1.6 0.00 0.00 0.00 34 1007.5
20260509191907 14 330 1.6 1.6 0.00 0.00 0.00 35 1007.7
20260509191403 14 350 0.0 0.0 0.00 0.00 0.00 33 1007.5
20260509190859 15 311 0.0 0.0 0.00 0.00 0.00 34 1007.4
20260509190356 15 317 0.0 0.0 0.00 0.00 0.00 33 1007.7
20260509185854 15 320 0.0 0.0 0.00 0.00 0.00 32 1007.8
20260509185350 15 298 0.0 1.6 0.00 0.00 0.00 32 1007.8
20260509184847 15 315 1.6 1.6 0.00 0.00 0.00 32 1007.8
20260509184344 15 358 1.6 1.6 0.00 0.00 0.00 32 1007.7
20260509183841 15 327 1.6 1.6 0.00 0.00 0.00 32 1007.8
20260509183336 15 316 1.6 1.6 0.00 0.00 0.00 32 1007.5
20260509182832 15 317 1.6 3.2 0.00 0.00 0.00 32 1007.7
20260509182330 15 308 1.6 1.6 0.00 0.00 0.00 32 1007.5
20260509181827 15 324 1.6 1.6 0.00 0.00 0.00 32 1007.7
20260509181324 15 304 1.6 1.6 0.00 0.00 0.00 32 1007.7
20260509180822 15 312 0.0 1.6 0.00 0.00 0.00 32 1007.4
20260509180317 16 318 0.0 1.6 0.00 0.00 0.00 32 1007.3
20260509175814 16 339 1.6 3.2 0.00 0.00 0.00 31 1007.3
20260509175311 16 339 1.6 1.6 0.00 0.00 0.00 31 1007.4
20260509174807 16 26 1.6 1.6 0.00 0.00 0.00 31 1007.4
20260509174302 16 322 0.0 1.6 0.00 0.00 0.00 32 1007.3
20260509173758 16 352 1.6 1.6 0.00 0.00 0.00 32 1007.3
20260509173254 16 331 1.6 1.6 0.00 0.00 0.00 32 1007.2
20260509172750 16 334 1.6 1.6 0.00 0.00 0.00 32 1007.4
20260509172247 16 334 0.0 1.6 0.00 0.00 0.00 32 1007.2
20260509171742 17 331 0.0 0.0 0.00 0.00 0.00 31 1007.0
20260509171239 17 329 0.0 1.6 0.00 0.00 0.00 31 1007.0
20260509170736 17 357 1.6 1.6 0.00 0.00 0.00 30 1006.8
20260509170232 17 341 0.0 0.0 0.00 0.00 0.00 30 1006.7
20260509165730 17 329 1.6 1.6 0.00 0.00 0.00 30 1006.8
20260509165225 17 352 1.6 1.6 0.00 0.00 0.00 29 1006.7
20260509164722 17 11 1.6 1.6 0.00 0.00 0.00 30 1006.7
20260509164217 18 335 1.6 1.6 0.00 0.00 0.00 29 1006.7
20260509163715 18 333 1.6 1.6 0.00 0.00 0.00 29 1006.6
20260509163212 18 336 4.8 4.8 0.00 0.00 0.00 28 1006.6
20260509162709 18 336 4.8 4.8 0.00 0.00 0.00 28 1006.7
20260509162204 19 356 4.8 8.0 0.00 0.00 0.00 27 1006.7
20260509161700 19 33 3.2 3.2 0.00 0.00 0.00 27 1006.8
20260509161156 20 12 4.8 8.0 0.00 0.00 0.00 26 1006.7
20260509160652 20 6 4.8 9.7 0.00 0.00 0.00 26 1006.7
20260509160148 20 351 6.4 9.7 0.00 0.00 0.00 26 1006.7
20260509155644 20 40 4.8 8.0 0.00 0.00 0.00 25 1006.6
20260509155140 20 353 8.0 11.3 0.00 0.00 0.00 25 1006.6
20260509154636 21 75 9.7 12.9 0.00 0.00 0.00 25 1006.7
20260509154133 21 5 8.0 11.3 0.00 0.00 0.00 25 1006.7
20260509153630 21 76 4.8 9.7 0.00 0.00 0.00 25 1006.7
20260509153127 21 20 9.7 11.3 0.00 0.00 0.00 24 1006.7
20260509152623 21 101 8.0 11.3 0.00 0.00 0.00 24 1006.6
20260509152120 21 221 8.0 12.9 0.00 0.00 0.00 24 1006.7
20260509151616 21 50 11.3 12.9 0.00 0.00 0.00 23 1006.5
20260509151114 21 5 6.4 9.7 0.00 0.00 0.00 23 1006.4
20260509150612 21 77 11.3 16.1 0.00 0.00 0.00 23 1006.6
20260509150110 21 5 6.4 8.0 0.00 0.00 0.00 23 1006.6
20260509145605 21 28 11.3 14.5 0.00 0.00 0.00 23 1006.6
20260509145101 21 47 11.3 14.5 0.00 0.00 0.00 23 1006.4
20260509144558 21 296 4.8 4.8 0.00 0.00 0.00 23 1006.7
20260509144055 21 311 11.3 16.1 0.00 0.00 0.00 23 1006.6
20260509143552 21 235 12.9 20.9 0.00 0.00 0.00 23 1006.5
20260509143050 21 53 8.0 12.9 0.00 0.00 0.00 23 1006.4
20260509142544 21 102 9.7 11.3 0.00 0.00 0.00 23 1006.6
20260509142041 21 91 6.4 8.0 0.00 0.00 0.00 22 1006.5
20260509141537 21 13 8.0 11.3 0.00 0.00 0.00 22 1006.5
20260509141034 21 29 9.7 11.3 0.00 0.00 0.00 22 1006.8
20260509140531 22 119 11.3 12.9 0.00 0.00 0.00 22 1006.7
20260509140029 22 9 6.4 8.0 0.00 0.00 0.00 22 1006.6
20260509135526 22 275 11.3 14.5 0.00 0.00 0.00 22 1006.8
20260509135023 21 287 6.4 11.3 0.00 0.00 0.00 22 1006.7
20260509134520 21 45 11.3 14.5 0.00 0.00 0.00 22 1006.7
20260509134018 22 89 9.7 11.3 0.00 0.00 0.00 22 1006.7
20260509133514 21 59 11.3 14.5 0.00 0.00 0.00 21 1006.8
20260509133012 22 15 11.3 14.5 0.00 0.00 0.00 21 1006.6
20260509132511 21 60 9.7 11.3 0.00 0.00 0.00 21 1006.7
20260509132008 21 0 14.5 20.9 0.00 0.00 0.00 21 1006.7
20260509131504 22 66 9.7 12.9 0.00 0.00 0.00 21 1006.6
20260509131001 21 79 14.5 16.1 0.00 0.00 0.00 20 1006.7
20260509130456 22 52 9.7 16.1 0.00 0.00 0.00 19 1006.8
20260509125954 22 83 6.4 9.7 0.00 0.00 0.00 17 1006.8
20260509125450 22 173 11.3 12.9 0.00 0.00 0.00 16 1006.7
20260509124946 22 44 6.4 8.0 0.00 0.00 0.00 16 1007.0
20260509124443 21 38 4.8 8.0 0.00 0.00 0.00 16 1007.0
20260509123940 21 105 4.8 9.7 0.00 0.00 0.00 16 1007.1
20260509123438 22 337 6.4 9.7 0.00 0.00 0.00 16 1007.0
20260509122933 21 38 14.5 17.7 0.00 0.00 0.00 15 1007.3
20260509122431 21 23 8.0 11.3 0.00 0.00 0.00 15 1007.3
20260509121927 21 265 9.7 12.9 0.00 0.00 0.00 15 1007.4
20260509121425 21 65 9.7 11.3 0.00 0.00 0.00 15 1007.2
20260509120923 21 105 6.4 9.7 0.00 0.00 0.00 15 1007.5
20260509120420 21 54 8.0 9.7 0.00 0.00 0.00 15 1007.4
20260509115918 21 42 9.7 16.1 0.00 0.00 0.00 15 1007.4
20260509115415 21 92 11.3 12.9 0.00 0.00 0.00 14 1007.9
20260509114912 21 328 8.0 11.3 0.00 0.00 0.00 14 1007.7
20260509114411 21 106 4.8 8.0 0.00 0.00 0.00 14 1007.8
20260509113910 21 184 4.8 4.8 0.00 0.00 0.00 13 1007.8
20260509113407 21 29 14.5 17.7 0.00 0.00 0.00 12 1007.9
20260509112903 21 213 12.9 17.7 0.00 0.00 0.00 12 1007.9
20260509112401 21 103 6.4 11.3 0.00 0.00 0.00 12 1007.8
20260509111858 21 91 4.8 9.7 0.00 0.00 0.00 14 1008.1
20260509111354 21 44 6.4 8.0 0.00 0.00 0.00 15 1008.0
20260509110853 20 327 6.4 8.0 0.00 0.00 0.00 17 1007.9
20260509110348 20 272 9.7 11.3 0.00 0.00 0.00 17 1008.3
20260509105847 20 209 4.8 8.0 0.00 0.00 0.00 16 1008.1
20260509105344 20 29 8.0 11.3 0.00 0.00 0.00 17 1008.0
20260509104841 20 68 6.4 8.0 0.00 0.00 0.00 17 1008.4
20260509104337 20 3 6.4 8.0 0.00 0.00 0.00 18 1008.7
20260509103835 20 55 3.2 4.8 0.00 0.00 0.00 18 1008.8
20260509103332 19 30 9.7 11.3 0.00 0.00 0.00 20 1008.5
20260509102831 19 356 11.3 17.7 0.00 0.00 0.00 20 1008.7
20260509102328 18 347 4.8 4.8 0.00 0.00 0.00 21 1008.7
20260509101824 18 19 4.8 4.8 0.00 0.00 0.00 22 1009.0
20260509101320 18 295 6.4 9.7 0.00 0.00 0.00 22 1009.0
20260509100818 18 310 3.2 4.8 0.00 0.00 0.00 23 1008.8
20260509100315 19 77 4.8 8.0 0.00 0.00 0.00 22 1009.3
20260509095812 18 92 4.8 4.8 0.00 0.00 0.00 23 1009.0
20260509095309 17 49 3.2 4.8 0.00 0.00 0.00 23 1009.1
20260509094806 17 65 4.8 8.0 0.00 0.00 0.00 25 1009.4
20260509094302 17 317 1.6 3.2 0.00 0.00 0.00 24 1009.4
20260509093800 18 26 4.8 4.8 0.00 0.00 0.00 23 1009.5
20260509093257 17 337 4.8 4.8 0.00 0.00 0.00 25 1009.7
20260509092756 17 349 3.2 4.8 0.00 0.00 0.00 25 1009.8
20260509092253 17 74 8.0 11.3 0.00 0.00 0.00 25 1009.5
20260509091751 17 332 3.2 3.2 0.00 0.00 0.00 26 1009.8
20260509091247 17 243 1.6 3.2 0.00 0.00 0.00 26 1009.7
20260509090745 16 103 4.8 11.3 0.00 0.00 0.00 27 1009.8
20260509090242 16 334 1.6 3.2 0.00 0.00 0.00 27 1009.7
20260509085740 16 344 1.6 1.6 0.00 0.00 0.00 28 1009.8
20260509085237 16 32 4.8 4.8 0.00 0.00 0.00 27 1009.8
20260509084733 16 325 0.0 1.6 0.00 0.00 0.00 27 1009.9
20260509084229 16 352 4.8 4.8 0.00 0.00 0.00 25 1010.0
20260509083728 16 323 1.6 1.6 0.00 0.00 0.00 26 1010.0
20260509083224 16 341 3.2 3.2 0.00 0.00 0.00 26 1009.9
20260509082721 15 298 1.6 1.6 0.00 0.00 0.00 25 1010.2
20260509082218 16 340 1.6 1.6 0.00 0.00 0.00 26 1009.9
20260509081714 16 189 4.8 4.8 0.00 0.00 0.00 27 1009.8
20260509081212 15 89 3.2 4.8 0.00 0.00 0.00 28 1009.8
20260509080710 15 8 0.0 1.6 0.00 0.00 0.00 28 1009.9
20260509080208 15 326 0.0 1.6 0.00 0.00 0.00 29 1009.9
20260509075706 15 335 0.0 1.6 0.00 0.00 0.00 27 1009.9
20260509075203 16 318 0.0 0.0 0.00 0.00 0.00 30 1009.7
20260509074700 15 320 0.0 0.0 0.00 0.00 0.00 28 1009.7
20260509074156 15 317 0.0 0.0 0.00 0.00 0.00 30 1009.7
20260509073653 14 322 0.0 0.0 0.00 0.00 0.00 29 1009.7
20260509073149 14 321 0.0 0.0 0.00 0.00 0.00 30 1009.7
20260509072646 13 324 0.0 0.0 0.00 0.00 0.00 31 1009.5
20260509072143 13 322 0.0 0.0 0.00 0.00 0.00 34 1009.4
20260509071640 13 324 0.0 0.0 0.00 0.00 0.00 36 1009.3
20260509071137 13 324 1.6 1.6 0.00 0.00 0.00 37 1009.3
20260509070634 12 323 1.6 1.6 0.00 0.00 0.00 37 1009.4
20260509070130 12 323 0.0 0.0 0.00 0.00 0.00 41 1009.2
20260509065626 11 320 1.6 1.6 0.00 0.00 0.00 40 1009.3
20260509065123 11 333 1.6 1.6 0.00 0.00 0.00 41 1009.1
20260509064620 11 326 0.0 1.6 0.00 0.00 0.00 39 1009.1
20260509064118 11 317 0.0 0.0 0.00 0.00 0.00 38 1009.0
20260509063614 11 323 0.0 0.0 0.00 0.00 0.00 40 1009.0
20260509063111 11 324 0.0 0.0 0.00 0.00 0.00 40 1008.8
20260509062608 11 324 0.0 0.0 0.00 0.00 0.00 38 1008.7
20260509062105 11 321 0.0 0.0 0.00 0.00 0.00 38 1008.7
20260509061602 10 319 1.6 1.6 0.00 0.00 0.00 40 1008.7
20260509061059 10 329 1.6 1.6 0.00 0.00 0.00 42 1008.8
20260509060557 10 325 0.0 0.0 0.00 0.00 0.00 41 1008.7
20260509060052 9 324 0.0 0.0 0.00 0.00 0.00 39 1008.8
20260509055548 8 320 0.0 0.0 0.00 0.00 0.00 44 1008.8
20260509055044 8 325 0.0 0.0 0.00 0.00 0.00 46 1008.6
20260509054541 9 319 0.0 1.6 0.00 0.00 0.00 41 1008.6
20260509054039 8 325 0.0 1.6 0.00 0.00 0.00 40 1008.8
20260509053537 8 324 0.0 0.0 0.00 0.00 0.00 45 1008.5
20260509053034 9 325 0.0 0.0 0.00 0.00 0.00 44 1008.5
20260509052531 10 324 0.0 0.0 0.00 0.00 0.00 39 1008.6
20260509052030 10 320 0.0 0.0 0.00 0.00 0.00 38 1008.6
20260509051527 9 320 0.0 0.0 0.00 0.00 0.00 39 1008.6
20260509051024 10 324 0.0 0.0 0.00 0.00 0.00 42 1008.5
20260509050521 10 322 0.0 0.0 0.00 0.00 0.00 36 1008.3
20260509050017 9 314 0.0 1.6 0.00 0.00 0.00 39 1008.5
20260509045515 9 324 0.0 0.0 0.00 0.00 0.00 40 1008.5